N123WB KHUM-KAPS

Flight info

Callsign N123WB
Flight time 0h 17m
Altitude 3000
Route RQR
Aircraft SR22/L-SDGRY/S

Departure

Time 2026-05-07 01:54
Airport Houma Terrebonne Airport (KHUM)

Arrival

Time 2026-05-07 02:11
Airport Port of South Louisiana Executive Regional Airport (KAPS)
Time Latitude Longitude Altitude Speed Heading
2026-05-07 01:38 29.57482 -90.66208 7 ft 0 kts 90°
2026-05-07 01:50 29.57485 -90.66174 7 ft 4 kts 89°
2026-05-07 01:51 29.57488 -90.66132 7 ft 2 kts 70°
2026-05-07 01:51 29.57489 -90.66129 7 ft 0 kts 93°
2026-05-07 01:52 29.57488 -90.66091 7 ft 11 kts 92°
2026-05-07 01:53 29.57393 -90.66014 7 ft 38 kts 182°
2026-05-07 01:53 29.56950 -90.66042 111 ft 73 kts 181°
2026-05-07 01:53 29.56441 -90.66087 331 ft 78 kts 178°
2026-05-07 01:53 29.55878 -90.65994 508 ft 83 kts 178°
2026-05-07 01:54 29.55297 -90.65958 714 ft 85 kts 174°
2026-05-07 01:54 29.54700 -90.65909 914 ft 85 kts 178°
2026-05-07 01:54 29.54110 -90.65862 1108 ft 84 kts 178°
2026-05-07 01:54 29.53592 -90.65571 1285 ft 91 kts 138°
2026-05-07 01:55 29.53428 -90.64827 1481 ft 107 kts 94°
2026-05-07 01:55 29.53814 -90.63918 1519 ft 143 kts 49°
2026-05-07 01:55 29.54727 -90.63422 1730 ft 152 kts
2026-05-07 01:55 29.55780 -90.63541 1938 ft 154 kts 347°
2026-05-07 01:56 29.56879 -90.63656 2144 ft 159 kts 354°
2026-05-07 01:56 29.58002 -90.63657 2347 ft 163 kts 358°
2026-05-07 01:56 29.59138 -90.63593 2552 ft 165 kts 359°
2026-05-07 01:56 29.60288 -90.63498 2756 ft 166 kts
2026-05-07 01:57 29.61405 -90.63396 2946 ft 163 kts 360°
2026-05-07 01:57 29.62597 -90.63289 3004 ft 178 kts
2026-05-07 01:57 29.63870 -90.63169 3002 ft 190 kts
2026-05-07 01:57 29.65218 -90.63039 3001 ft 195 kts
2026-05-07 01:58 29.66589 -90.62907 2999 ft 198 kts
2026-05-07 01:58 29.67963 -90.62773 2997 ft 200 kts
2026-05-07 01:58 29.69355 -90.62639 2997 ft 201 kts
2026-05-07 01:58 29.70761 -90.62502 2998 ft 202 kts
2026-05-07 01:59 29.72168 -90.62361 3028 ft 201 kts
2026-05-07 01:59 29.73540 -90.62201 3064 ft 199 kts 360°
2026-05-07 01:59 29.74931 -90.62093 2811 ft 214 kts
2026-05-07 01:59 29.76331 -90.61958 2586 ft 206 kts
2026-05-07 02:00 29.77690 -90.61826 2538 ft 188 kts
2026-05-07 02:00 29.78920 -90.61719 2712 ft 162 kts
2026-05-07 02:00 29.79962 -90.61616 2904 ft 139 kts 359°
2026-05-07 02:00 29.80936 -90.61523 3151 ft 141 kts 358°
2026-05-07 02:01 29.81921 -90.61435 3401 ft 143 kts 358°
2026-05-07 02:01 29.82979 -90.61301 3313 ft 170 kts
2026-05-07 02:01 29.84208 -90.61034 3212 ft 187 kts
2026-05-07 02:01 29.85518 -90.61029 3230 ft 189 kts 351°
2026-05-07 02:02 29.86811 -90.60697 3227 ft 199 kts 32°
2026-05-07 02:02 29.87680 -90.59463 3166 ft 201 kts 67°
2026-05-07 02:02 29.88296 -90.58003 3060 ft 207 kts 69°
2026-05-07 02:02 29.88921 -90.56489 3005 ft 207 kts 69°
2026-05-07 02:03 29.89531 -90.55008 2995 ft 206 kts 69°
2026-05-07 02:03 29.90144 -90.53521 2992 ft 204 kts 69°
2026-05-07 02:03 29.90806 -90.52068 2980 ft 207 kts 54°
2026-05-07 02:03 29.92018 -90.51211 2970 ft 206 kts 10°
2026-05-07 02:04 29.93432 -90.51316 2821 ft 207 kts 341°
2026-05-07 02:04 29.94793 -90.51778 2865 ft 199 kts 334°
2026-05-07 02:04 29.96095 -90.52352 2677 ft 202 kts 332°
2026-05-07 02:04 29.97375 -90.52969 2603 ft 198 kts 332°
2026-05-07 02:05 29.98673 -90.53565 2392 ft 202 kts 333°
2026-05-07 02:05 29.99960 -90.54151 2348 ft 197 kts 332°
2026-05-07 02:05 30.01232 -90.54752 2231 ft 197 kts 332°
2026-05-07 02:05 30.02529 -90.55338 2076 ft 200 kts 334°
2026-05-07 02:06 30.03774 -90.55946 1852 ft 182 kts 326°
2026-05-07 02:06 30.04698 -90.56811 1470 ft 166 kts 315°
2026-05-07 02:06 30.05611 -90.57571 1094 ft 159 kts 335°
2026-05-07 02:06 30.06493 -90.57931 846 ft 125 kts 354°
2026-05-07 02:07 30.07340 -90.58069 357 ft 119 kts 355°
2026-05-07 02:07 30.08750 -90.58279 11 ft 92 kts 351°
2026-05-07 02:07 30.09401 -90.58382 273 ft 94 kts 355°
2026-05-07 02:08 30.10030 -90.58321 544 ft 94 kts 14°
2026-05-07 02:08 30.10733 -90.58356 643 ft 122 kts 336°
2026-05-07 02:08 30.11457 -90.58963 818 ft 129 kts 287°
2026-05-07 02:08 30.11220 -90.59759 1092 ft 111 kts 199°
2026-05-07 02:09 30.10469 -90.59541 1246 ft 130 kts 148°
2026-05-07 02:09 30.09727 -90.58819 1322 ft 145 kts 145°
2026-05-07 02:09 30.09007 -90.57958 1476 ft 148 kts 117°
2026-05-07 02:09 30.09311 -90.56918 1209 ft 157 kts 43°
2026-05-07 02:10 30.10353 -90.56602 847 ft 152 kts 351°
2026-05-07 02:10 30.11116 -90.57244 518 ft 135 kts 288°
2026-05-07 02:10 30.11124 -90.58150 384 ft 97 kts 242°
2026-05-07 02:10 30.10762 -90.58506 450 ft 60 kts 193°
2026-05-07 02:11 30.10679 -90.58566 113 ft 34 kts 209°
2026-05-07 02:11 30.10691 -90.58573 6 ft 0 kts 211°